Location: Creston
(40.9870°N, 81.8938°W)
Time: 17:57:29
(UTC+00:00)

H-2A R/B - Pass Details

Date: 29 October 2020
Orbit: 528 x 653 km, 98.3° (Epoch: 27 November)

Event Time Altitude Azimuth Distance (km) Brightness Sun altitude
Rises 22:46:13 0° 178° (S) 2,916 6.2 -4.4°
Reaches altitude 10° 22:48:26 10° 184° (S) 2,026 5.5 -4.8°
Maximum altitude 22:52:45 51° 260° (W) 820 3.8 -5.6°
Drops below altitude 10° 22:57:10 10° 336° (NNW) 2,068 5.4 -6.4°
Sets 22:59:28 0° 342° (NNW) 2,984 6.1 -6.9°
